Notices

What's New in latest Release from April 7th, 2021:

- Updated Glossary, including Speed of Maximum Gust, and Total Hourly Precipitation

- Updated national and regional climate services offices contacts and prices information

- Addition of station inventory lists for 1981-2010, 1971-2000, and 1961-1990 Normals.

If you haven't already, please take our survey and provide feedback about our website: https://eccc.sondage-survey.ca/f/LanguageSelection.aspx?s=442ca660-fcf1-47c0-95a9-59707d6fd709

Hourly Data Report for May 13, 2021

CORAL HARBOUR A
NUNAVUT
Current Station Operator: NAVCAN

64°11'36.000" N
83°21'34.000" W
62.20 m
2301002
71915
YZS

Download Data

Hourly Data (May 2021)
Hourly Data Report for May 13, 2021
TIME
LST
Temp Definition
°C
Dew Point Definition
°C
Rel Hum Definition
%
Precip. Amount Definition
mm

Wind Dir Definition
10's deg

Wind Spd Definition
km/h
Visibility Definition
km
Stn Press Definition
kPa
Hmdx Definition


Wind Chill Definition


Weather Definition


00:00 -13.6 -16.9 77   34 24 24.1 101.54   -23 LegendNANA
01:00 -14.9 -18.1 77   33 28 24.1 101.51   -26 Mainly Clear
02:00 -15.0 -18.4 76   34 26 24.1 101.50   -25 LegendNANA
03:00 -15.5 -18.8 76   35 23 24.1 101.51   -25 LegendNANA
04:00 -15.9 -19.0 77   34 16 24.1 101.53   -24 Mainly Clear
05:00 -15.9 -18.9 78   33 14 24.1 101.53   -24 LegendNANA
06:00 -15.2 -18.0 79   31 15 24.1 101.53   -23 LegendNANA
07:00 -14.3 -17.3 78   33 15 24.1 101.53   -22 Mainly Clear
08:00 -13.0 -15.8 80   29 8 24.1 101.52   -18 LegendNANA
09:00 -12.1 -15.5 76   28 3 24.1 101.51   -14 LegendNANA
10:00 -10.9 -13.8 79   25 9 24.1 101.47   -16 Mainly Clear
11:00 -9.5 -12.1 81   25 16 24.1 101.43   -16 LegendNANA
12:00 -9.4 -11.6 85   23 14 24.1 101.39   -16 LegendNANA
13:00 -9.2 -11.1 86   23 7 24.1 101.35   -13 Mostly Cloudy
14:00 -7.9 -9.3 90   15 10 24.1 101.30   -13 LegendNANA
15:00 -5.9 -7.9 86   21 15 24.1 101.21   -12 LegendNANA
16:00 -5.0 -7.2 85   24 23 19.3 101.13   -12 Snow
17:00 -4.7 -7.2 83   22 28 24.1 101.03   -12 Snow
18:00 -5.1 -6.2 92   21 22 2.4 100.95   -12 Snow
19:00 -5.2 -6.2 93   21 26 1.6 100.87   -13 Snow
20:00 -5.6 -6.5 94   21 30 1.2 100.79   -14 Snow,Blowing Snow
21:00 -5.8 -6.7 94   21 32 1.2 100.67   -14 Snow,Blowing Snow
22:00 -5.9 -6.7 94   21 32 1.2 100.55   -14 Snow,Blowing Snow
23:00 -7.7 -9.4 87   29 23 1.2 100.51   -15 Snow,Blowing Snow

Notes on Data Quality.

Legend

  • E = Estimated
  • M = Missing
  • NA = Not Available*
  • [empty] = Indicates an unobserved value
Date modified: